カタログに戻る

TITAN 3C TRANSTAGE DEB

運用中HEO
NORAD 13906·DEBRIS·🇺🇸 United States

打ち上げ Dec 21, 1965 から Cape Canaveral Space Force Station

Loading…

次のパス (今後24時間)

TLE

最新Source: Space-Track

元期: Sep 14, 2026, 02:30 UTC

1 13906U 65108U   26257.10439317  .00000093  00000-0  15134-2 0  9997
2 13906  26.2077 223.3674 6741088 296.9724 188.0290  2.78188720345851

AllMySatでTITAN 3C TRANSTAGE DEBをリアルタイム追跡

Download on the App Store